Bilbao, Spain

7:05 PM CET en Diciembre 18, 2018 (GMT +0100)
Bilbao

Tiempo Historia de LEBB - Diciembre, 2018

Change the Weather History Date:

Jueves, Diciembre 6, 2018

  Actual Average Record
Temperature  
Temperatura media 54 ° F -  
Temperatura máxima 61 ° F 54 ° F 71 ° F (2010)
Temperatura mínima 46 ° F 41 ° F 30 ° F (1999)
Degree Days  
Grados día de calefacción 12    
Growing Degree Days 4 (Base 50)    
Moisture  
Punto de rocío 49 ° F    
Average Humidity 76    
Maximum Humidity 93    
Minimum Humidity 57    
Precipitación  
Precipitación 0.00 pul - - ()
Presión al nivel del mar  
Presión al nivel del mar 30.39 pul    
Viento  
Velocidad del viento 4 mph ()    
Velocidad máxima del viento 9 mph    
Max Gust Speed -    
Visibilidad 6.8 Millas    
Eventos      
Averages and records for this station are not official NWS values.
T = Trace of Precipitation, MM = Missing Value Source: Averaged Metar Reports

Daily Weather History Graph

Daily Weather History Graph

Search for Another Location

Airport or City:

Astronomía

Dec. 06, 2018 Salida Puesta
Hora real 8:29 AM CET 5:36 PM CET
Crepúsculo civil 7:56 AM CET 6:08 PM CET
Crepúsculo náutico 7:21 AM CET 6:44 PM CET
Crepúsculo astronómico 6:46 AM CET 7:18 PM CET
Luna 7:19 AM CET (12/6) 5:24 PM CET (12/6)
Horas de luz 10h 11m
Horas de luz
9h 06m
Creciente menguante, 1% of the Moon is Illuminated
Dic 6
Creciente menguante
Dic 7
Nueva
Dic 15
Cuarto creciente
Dic 22
Luna llena
Dic 29
Cuarto menguante

Hourly Weather History & Observations

Hora (CET) Temp. Vientos helados Punto de rocío Humedad Presión Visibilidad Wind Dir Velocidad del viento Velocidad de ráfagas Precip Eventos Condiciones
12:00 AM 55 ° F - 52 ° F 86% 30.34 pul - Este 5.8 mph - -  
12:00 AM 57.2 ° F - 51.8 ° F 82% 30.33 pul 6.2 mi Este 4.6 mph - N/A   Muy nublado
12:30 AM 57.2 ° F - 51.8 ° F 82% 30.33 pul 6.2 mi Este 3.5 mph - N/A   Muy nublado
1:00 AM 55 ° F - 51 ° F 84% 30.35 pul - Este 4.6 mph - -  
1:00 AM 57.2 ° F - 51.8 ° F 82% 30.33 pul 6.2 mi Este 4.6 mph - N/A   Muy nublado
1:30 AM 55.4 ° F - 51.8 ° F 88% 30.33 pul 6.2 mi ESE 3.5 mph - N/A   Muy nublado
2:00 AM 55 ° F - 51 ° F 84% 30.35 pul - ESE 4.6 mph - -  
2:00 AM 55.4 ° F - 51.8 ° F 88% 30.33 pul 6.2 mi ESE 3.5 mph - N/A   Muy nublado
2:30 AM 57.2 ° F - 48.2 ° F 72% 30.33 pul 6.2 mi ENE 3.5 mph - N/A   Muy nublado
3:00 AM 55 ° F - 51 ° F 80% 30.36 pul - Norte 2.3 mph - -  
3:00 AM 57.2 ° F - 48.2 ° F 72% 30.33 pul 6.2 mi Variable 2.3 mph - N/A   Muy nublado
3:30 AM 57.2 ° F - 48.2 ° F 72% 30.36 pul 6.2 mi Sin viento Sin viento - N/A   Muy nublado
4:00 AM 57 ° F - 46 ° F 58% 30.36 pul - Oeste 4.6 mph - -  
4:00 AM 57.2 ° F - 46.4 ° F 67% 30.36 pul 6.2 mi Oeste 4.6 mph - N/A   Muy nublado
4:30 AM 55.4 ° F - 46.4 ° F 72% 30.36 pul 6.2 mi Variable 1.2 mph - N/A   Nubes dispersas
5:00 AM 57.2 ° F - 46.4 ° F 67% 30.36 pul 6.2 mi Variable 2.3 mph - N/A   Muy nublado
5:30 AM 57.2 ° F - 46.4 ° F 67% 30.36 pul 6.2 mi Variable 2.3 mph - N/A   Muy nublado
6:00 AM 54 ° F - 49 ° F 79% 30.38 pul - Este 3.5 mph - -  
6:00 AM 57.2 ° F - 46.4 ° F 67% 30.36 pul 6.2 mi Este 3.5 mph - N/A   Muy nublado
6:30 AM 55.4 ° F - 50.0 ° F 82% 30.36 pul 6.2 mi SE 4.6 mph - N/A   Muy nublado
7:00 AM 54 ° F - 49 ° F 79% 30.40 pul 9 mi SE 3.5 mph - -   Nublado
7:30 AM 55.4 ° F - 48.2 ° F 77% 30.39 pul 6.2 mi SE 3.5 mph - N/A   Muy nublado
8:00 AM 55.4 ° F - 48.2 ° F 77% 30.39 pul 6.2 mi Variable 2.3 mph - N/A   Muy nublado
8:30 AM 55.4 ° F - 48.2 ° F 77% 30.42 pul 6.2 mi SE 3.5 mph - N/A   Muy nublado
9:00 AM 53 ° F - 47 ° F 75% 30.43 pul - ESE 6.9 mph - -  
9:00 AM 53.6 ° F - 48.2 ° F 82% 30.42 pul 6.2 mi SE 5.8 mph - N/A   Muy nublado
9:30 AM 53.6 ° F - 48.2 ° F 82% 30.42 pul 6.2 mi ESE 5.8 mph - N/A   Muy nublado
10:00 AM 54 ° F - 48 ° F 75% 30.44 pul 12 mi SE 3.5 mph - -   Muy nublado
10:00 AM 55.4 ° F - 48.2 ° F 77% 30.42 pul 6.2 mi Variable 1.2 mph - N/A   Muy nublado
10:30 AM 55.4 ° F - 48.2 ° F 77% 30.42 pul 6.2 mi ESE 3.5 mph - N/A   Nubes dispersas
11:00 AM 57 ° F - 50 ° F 69% 30.45 pul - SE 3.5 mph - -  
11:00 AM 57.2 ° F - 50.0 ° F 77% 30.42 pul 6.2 mi Variable 2.3 mph - N/A   Nubes dispersas
11:30 AM 57.2 ° F - 50.0 ° F 77% 30.42 pul 6.2 mi SE 3.5 mph - N/A   Nubes dispersas
12:00 PM 59 ° F - 51 ° F 67% 30.44 pul - SE 3.5 mph - -  
12:00 PM 59.0 ° F - 50.0 ° F 72% 30.42 pul 6.2 mi SE 3.5 mph - N/A   Nubes dispersas
12:30 PM 60.8 ° F - 50.0 ° F 68% 30.42 pul 6.2 mi Variable 2.3 mph - N/A   Muy nublado
1:00 PM 61 ° F - 51 ° F 62% 30.43 pul 12 mi Sin viento Sin viento - -   Muy nublado
1:00 PM 60.8 ° F - 50.0 ° F 68% 30.42 pul 6.2 mi Sin viento Sin viento - N/A   Muy nublado
1:30 PM 62.6 ° F - 50.0 ° F 63% 30.42 pul 6.2 mi Sin viento Sin viento - N/A   Muy nublado
2:00 PM 61 ° F - 50 ° F 57% 30.42 pul - ONO 2.3 mph - -  
2:00 PM 60.8 ° F - 51.8 ° F 72% 30.42 pul 6.2 mi Variable 1.2 mph - N/A   Muy nublado
2:30 PM 60.8 ° F - 50.0 ° F 68% 30.39 pul 6.2 mi NO 6.9 mph - N/A   Muy nublado
3:00 PM 61 ° F - 50 ° F 58% 30.41 pul - NO 8.1 mph - -  
3:00 PM 60.8 ° F - 50.0 ° F 68% 30.39 pul 6.2 mi NO 8.1 mph - N/A   Muy nublado
3:30 PM 60.8 ° F - 50.0 ° F 68% 30.39 pul 6.2 mi NO 8.1 mph - N/A   Muy nublado
4:00 PM 60 ° F - 49 ° F 57% 30.41 pul 19 mi NO 8.1 mph - -   Muy nublado
4:00 PM 60.8 ° F - 48.2 ° F 63% 30.39 pul 6.2 mi NO 9.2 mph - N/A   Muy nublado
4:30 PM 59.0 ° F - 50.0 ° F 72% 30.39 pul 6.2 mi NO 6.9 mph - N/A   Muy nublado
5:00 PM 59.0 ° F - 48.2 ° F 67% 30.39 pul 6.2 mi Variable 2.3 mph - N/A   Muy nublado
5:30 PM 59.0 ° F - 48.2 ° F 67% 30.42 pul 6.2 mi NNO 3.5 mph - N/A   Muy nublado
6:00 PM 57.2 ° F - 50.0 ° F 77% 30.42 pul 6.2 mi Variable 2.3 mph - N/A   Muy nublado
6:30 PM 57.2 ° F - 48.2 ° F 72% 30.42 pul 6.2 mi Variable 1.2 mph - N/A   Muy nublado
7:00 PM 54 ° F - 48 ° F 74% 30.43 pul 9 mi SE 4.6 mph - -   Muy nublado
7:00 PM 53.6 ° F - 48.2 ° F 82% 30.42 pul 6.2 mi Variable 2.3 mph - N/A   Muy nublado
7:30 PM 51.8 ° F - 48.2 ° F 88% 30.42 pul 6.2 mi Este 3.5 mph - N/A   Nubes dispersas
8:00 PM 51 ° F - 48 ° F 84% 30.43 pul - Este 3.5 mph - -  
8:00 PM 51.8 ° F - 48.2 ° F 88% 30.42 pul 6.2 mi Este 3.5 mph - N/A   Nubes dispersas
8:30 PM 48.2 ° F - 46.4 ° F 93% 30.42 pul 6.2 mi SE 4.6 mph - N/A   Parcialmente nublado
9:00 PM 49 ° F - 47 ° F 91% 30.43 pul - Este 5.8 mph - -  
9:00 PM 50.0 ° F - 46.4 ° F 87% 30.42 pul 6.2 mi Este 4.6 mph - N/A   Parcialmente nublado
9:30 PM 48.2 ° F - 44.6 ° F 87% 30.42 pul 6.2 mi ESE 3.5 mph - N/A   Parcialmente nublado
10:00 PM 48 ° F - 46 ° F 89% 30.42 pul 9 mi Este 2.3 mph - -   Parcialmente nublado
10:30 PM 46.4 ° F 45.2 ° F 44.6 ° F 93% 30.39 pul 6.2 mi ESE 3.5 mph - N/A   Parcialmente nublado
11:00 PM 47 ° F - 45 ° F 90% 30.41 pul - Este 3.5 mph - -  
11:00 PM 48.2 ° F - 46.4 ° F 93% 30.39 pul 6.2 mi ESE 3.5 mph - N/A   Parcialmente nublado
11:30 PM 46.4 ° F 45.2 ° F 44.6 ° F 93% 30.39 pul 6.2 mi ESE 3.5 mph - N/A   Parcialmente nublado